Theta_e
354 354 353 352 352 350 349 348 347 347 347 347 347 347 347 348 349 348 345 346 349 351 352 355 356 355 352 351 353 354 352 352 353 352 353 354 353 350 350 351 353 355
354 354 354 352 351 351 350 349 348 347 347 347 347 346 347 349 350 348 346 345 349 349 349 352 354 353 351 349 352 354 353 354 354 351 350 352 352 350 350 350 352 355
354 354 354 352 351 351 350 350 349 348 347 348 347 347 348 349 348 347 347 347 348 348 347 350 351 351 351 350 352 354 354 354 354 351 350 351 352 352 351 351 351 354
354 354 353 352 351 350 350 349 349 349 348 347 346 346 347 346 345 345 347 349 348 347 347 349 349 349 350 350 353 353 353 354 355 354 352 352 354 355 353 353 354 354
354 353 353 351 351 350 349 349 349 348 347 346 346 346 346 346 346 346 347 349 349 347 346 347 348 349 349 351 352 353 353 352 353 354 355 355 355 356 356 355 356 355
354 354 352 351 351 351 350 349 348 347 346 346 346 346 346 347 347 346 346 347 348 346 345 345 346 347 347 350 352 353 352 352 352 354 356 357 356 356 356 357 356 356
354 354 353 352 350 350 351 350 348 347 345 345 346 346 347 347 347 346 346 347 347 345 344 344 345 346 346 348 351 353 353 353 353 355 358 358 357 357 358 357 357 357
353 353 353 352 350 350 350 350 349 348 346 345 346 346 347 347 347 347 347 347 347 346 345 344 346 347 348 348 349 351 353 354 353 354 357 358 357 359 361 359 358 360
352 352 352 351 351 349 349 349 348 348 348 347 346 346 346 347 346 347 347 347 347 347 346 346 346 348 349 349 348 349 352 354 354 355 357 358 357 358 361 361 360 360
353 352 351 351 350 349 349 348 347 348 348 348 347 346 346 346 346 347 347 348 348 348 347 347 347 348 348 349 348 349 351 354 355 356 357 357 356 357 359 361 362 360
354 353 350 350 350 349 349 348 347 348 348 348 347 346 346 346 346 347 347 348 348 349 348 348 348 348 348 348 349 349 351 354 355 356 357 357 356 357 358 360 361 360
354 353 352 351 350 349 348 348 348 348 348 348 348 346 346 346 346 347 347 347 348 349 348 348 348 348 348 349 349 349 350 353 356 357 358 357 356 356 357 359 360 360
354 354 354 353 351 350 349 348 348 348 348 348 348 348 347 346 346 346 347 348 348 349 349 349 348 349 349 350 350 350 350 352 355 357 357 357 356 354 355 357 360 360
354 354 355 354 354 353 351 349 348 348 348 349 348 348 348 347 346 346 346 347 347 348 349 349 349 349 350 350 351 352 351 351 355 357 356 356 356 355 356 358 360 360
354 355 356 356 356 355 354 353 350 350 350 350 350 350 349 348 347 346 345 345 346 347 348 349 350 350 350 351 351 352 352 351 353 356 357 357 358 358 358 358 358 358
355 356 356 357 356 356 356 355 353 353 353 352 352 352 351 350 349 347 346 345 345 347 348 349 351 350 351 351 351 352 351 351 354 356 358 359 361 362 360 358 357 357
355 356 356 357 357 356 357 357 357 355 354 353 353 353 353 353 352 350 349 346 346 347 348 350 351 351 352 352 351 351 350 351 353 355 358 361 362 361 359 357 356 355
355 356 356 356 356 355 355 358 360 359 357 355 354 354 354 353 353 353 351 350 349 348 348 349 350 350 351 351 352 350 347 347 349 351 357 362 361 359 357 355 352 352
355 355 355 355 355 355 354 356 358 360 360 358 356 355 354 354 354 353 353 352 350 349 348 348 348 349 349 349 351 350 347 346 346 349 356 359 359 358 355 353 350 351
355 355 355 355 355 354 354 355 355 356 358 357 358 357 356 355 354 354 354 353 352 351 349 349 347 347 348 348 350 349 348 346 346 349 354 356 358 357 354 351 350 351
354 354 354 354 354 354 354 356 356 356 355 355 356 356 356 356 355 355 355 355 355 353 351 349 348 346 347 348 348 349 349 347 347 351 354 355 357 356 354 351 350 352
354 354 353 353 353 353 354 355 356 356 355 355 356 356 356 356 356 356 356 355 355 355 353 352 350 348 348 348 347 348 348 347 350 352 353 355 356 355 353 351 351 352
352 352 352 352 352 352 352 353 354 355 355 356 356 357 358 357 355 355 355 355 356 356 355 355 354 353 352 350 349 349 348 348 352 353 352 353 354 354 353 351 351 351
350 350 350 351 351 351 351 351 352 352 353 354 354 356 357 357 356 355 355 355 355 355 355 355 355 355 354 352 351 350 349 349 351 352 351 351 352 353 352 351 350 351
349 350 350 350 350 350 350 351 351 351 352 352 353 354 355 355 355 355 355 355 354 354 354 354 355 356 356 354 352 350 349 349 349 350 350 350 351 351 351 351 351 350
347 348 348 348 349 349 349 349 349 349 350 350 351 352 352 353 354 354 355 355 353 353 355 355 355 354 355 354 352 349 348 348 349 351 351 350 350 349 349 350 350 349
Wind_Speed
14 15 15 16 16 15 15 16 16 16 16 15 14 15 16 15 14 14 13 12 12 12 12 11 10 10 11 10 10 9 9 9 9 8 8 8 8 8 7 7 6 6
15 15 15 15 16 16 15 15 15 16 16 16 14 13 14 14 13 14 13 13 12 12 12 12 11 11 12 12 11 10 9 9 10 10 9 8 8 8 8 8 8 7
15 15 15 16 16 17 17 16 15 16 16 16 15 14 13 13 14 14 14 14 13 13 12 12 12 12 12 12 11 10 10 9 10 10 9 9 8 8 8 9 9 8
16 16 16 17 17 17 17 17 17 17 16 16 16 16 14 13 14 14 14 14 13 13 12 12 13 12 13 12 11 11 10 10 10 10 9 9 8 8 8 8 9 8
17 17 17 17 16 16 17 18 18 18 18 17 16 16 15 14 14 15 15 14 13 13 13 13 13 13 13 12 12 11 11 11 11 10 10 10 9 8 8 8 9 9
16 17 17 17 17 17 17 18 19 19 19 18 17 16 16 15 16 16 15 14 13 14 14 14 14 14 13 13 13 12 12 11 11 10 10 10 10 9 8 8 9 9
15 16 17 17 17 18 17 17 18 18 18 18 18 17 16 16 17 17 15 14 14 14 14 14 13 13 14 14 13 13 13 12 11 10 10 10 10 10 9 9 9 9
15 15 16 17 18 19 19 18 18 18 18 18 18 18 17 17 17 17 16 15 15 15 15 15 14 14 14 14 14 14 14 13 13 12 12 11 11 10 10 9 9 8
16 16 16 17 18 19 19 20 19 18 18 18 19 18 18 18 17 17 17 16 16 16 15 16 16 15 16 15 15 15 15 14 14 13 13 13 13 12 11 10 10 10
16 16 16 17 18 19 20 20 20 19 18 19 19 19 19 19 18 18 18 17 16 17 17 17 17 17 17 16 16 16 16 16 15 14 14 14 14 13 12 11 11 11
16 16 17 17 18 18 19 20 20 19 19 19 20 20 20 20 19 19 19 19 18 18 18 18 18 18 18 17 17 16 16 16 16 15 15 15 14 13 13 12 12 12
16 16 16 16 17 17 18 19 19 20 19 19 20 20 21 21 20 20 20 20 20 19 19 19 18 19 19 18 18 17 17 16 16 15 15 15 15 15 14 14 13 12
15 16 16 15 16 16 16 17 18 19 19 19 19 19 21 21 22 21 21 20 21 21 21 20 19 19 19 19 19 18 17 17 16 16 16 15 15 16 16 15 14 12
15 15 15 15 15 15 16 16 17 18 18 18 19 19 20 21 22 22 22 21 21 21 21 21 20 20 20 19 19 19 18 18 17 16 16 16 16 16 15 14 14 12
15 13 13 14 14 14 15 16 16 16 16 17 17 18 19 20 21 22 23 23 22 22 22 21 21 21 21 21 20 19 18 19 18 17 17 15 14 15 15 17 18 15
16 14 13 14 14 14 14 15 16 16 16 16 17 17 17 18 19 20 22 23 23 22 22 21 21 21 22 22 22 20 18 18 17 16 16 14 14 15 16 16 16 14
16 15 14 14 15 15 14 14 15 16 17 17 18 18 18 18 18 19 20 21 22 22 22 21 21 21 22 23 24 24 21 19 17 16 14 14 15 14 13 14 14 13
16 16 16 16 16 16 15 14 13 14 16 18 19 19 18 18 19 19 20 20 21 22 22 22 22 21 21 23 24 26 25 22 19 17 13 12 15 15 15 17 18 16
16 16 16 17 17 17 16 15 15 15 15 16 18 19 19 20 20 20 20 20 21 22 23 23 22 21 21 22 24 25 25 24 22 17 12 13 17 20 20 20 19 18
13 14 14 15 16 16 16 17 18 18 18 18 17 17 19 20 20 20 20 20 21 21 22 23 23 23 22 22 23 24 25 25 23 17 15 18 22 23 21 21 21 20
11 12 13 13 14 15 15 15 16 18 20 20 19 19 20 20 20 21 21 21 21 21 21 22 23 24 24 24 25 24 24 24 21 18 19 21 23 23 21 21 22 20
9 9 11 12 13 14 15 14 15 17 18 19 18 18 19 19 19 19 20 21 22 22 22 22 22 23 23 25 25 24 23 22 20 20 21 21 20 21 22 21 20 19
8 9 10 11 12 13 14 15 15 16 16 15 15 15 15 18 20 20 21 21 21 22 23 23 22 22 23 24 24 23 23 21 19 20 22 20 19 19 19 18 18 19
8 8 8 10 11 11 12 14 15 16 15 14 15 15 15 16 19 20 22 22 23 24 24 23 23 22 23 24 24 23 23 22 21 21 22 20 20 20 18 17 19 21
5 6 7 8 9 9 9 11 12 13 13 13 13 14 14 15 16 18 18 20 23 24 24 24 24 22 21 23 23 23 23 22 22 23 23 21 21 21 19 18 20 23
3 5 5 6 6 6 7 8 9 10 11 11 12 13 14 14 15 16 16 17 20 21 21 22 23 23 22 23 24 24 23 22 22 23 23 24 24 23 19 20 23 25
Wind_Direction
207 208 208 207 207 206 206 208 211 212 213 215 216 214 215 216 217 220 222 220 218 220 222 226 231 236 242 243 240 242 247 248 249 250 248 252 260 265 266 263 261 269
207 208 209 207 206 206 207 209 212 213 213 216 219 214 211 213 215 218 221 220 219 222 225 227 232 233 235 236 234 237 241 243 246 250 251 253 261 266 265 263 260 256
207 208 210 209 208 207 208 210 212 215 213 213 216 216 213 213 215 216 218 220 223 228 227 227 230 229 229 231 231 236 241 244 248 250 252 254 257 262 262 260 259 253
208 209 210 212 212 211 212 212 212 213 214 213 214 215 216 218 217 214 215 219 225 229 226 225 228 227 227 227 229 236 241 244 247 248 249 250 250 255 258 259 259 255
208 208 210 213 215 215 214 213 212 211 212 214 214 214 215 217 217 215 214 217 221 224 225 225 226 226 226 226 228 235 241 243 243 240 240 244 246 249 253 258 258 257
209 208 209 211 213 216 216 214 213 213 212 213 214 214 214 214 217 219 220 220 220 222 224 226 226 226 225 226 229 233 239 244 243 236 234 237 243 247 249 253 257 257
211 209 208 210 211 213 215 216 215 215 216 214 214 215 216 216 217 220 222 225 226 227 228 228 227 226 226 226 228 231 235 240 243 237 234 235 240 244 244 249 253 253
213 210 209 211 212 211 214 216 216 217 218 217 216 216 216 218 219 219 222 226 229 230 231 231 229 227 229 228 228 231 233 236 238 235 232 234 239 239 237 241 246 244
216 213 210 211 212 214 215 216 217 217 217 218 220 218 216 219 220 221 223 225 229 231 231 232 231 228 230 232 232 234 235 236 238 235 230 232 236 237 234 235 238 236
219 217 215 213 214 216 216 217 218 217 217 219 220 220 219 219 220 222 224 225 228 230 230 231 232 230 231 233 235 236 236 236 237 234 233 235 236 237 235 232 234 234
227 223 220 217 218 219 217 217 218 217 218 218 220 222 222 221 220 221 224 226 227 229 231 231 231 231 232 234 236 238 237 237 236 234 233 236 238 237 233 231 231 231
231 230 227 223 222 223 221 219 218 219 219 219 220 221 223 225 224 223 224 226 227 229 231 232 231 231 232 233 236 239 240 238 236 234 234 237 239 237 233 229 229 226
225 229 231 230 228 228 228 224 221 221 221 221 222 222 224 226 226 226 227 227 228 230 232 233 233 232 232 233 235 240 242 240 236 235 237 238 238 239 236 228 222 220
224 224 227 230 231 232 233 232 228 226 225 225 224 225 227 228 228 229 228 229 231 231 231 233 233 233 233 233 234 238 241 239 236 234 237 238 238 239 235 221 211 212
226 226 226 227 228 230 233 235 235 232 231 230 229 229 230 231 232 232 232 232 233 232 232 232 232 233 232 232 233 236 238 236 234 233 236 237 234 228 223 219 216 215
226 227 228 226 226 228 231 235 236 234 233 232 232 233 234 235 236 236 236 236 235 234 234 232 232 233 232 231 230 232 235 236 234 233 231 227 220 215 215 217 216 214
225 226 227 227 226 227 228 231 234 234 234 233 233 233 234 236 237 237 238 239 239 239 237 234 235 234 231 231 231 231 234 237 238 237 229 218 214 210 203 203 208 213
225 225 226 227 227 228 230 229 229 231 232 234 234 234 233 234 236 238 239 240 241 242 241 239 239 237 234 234 235 237 239 240 242 244 233 210 206 205 203 212 222 223
228 227 228 229 229 231 232 230 228 228 228 230 232 233 233 234 234 235 237 238 239 241 242 242 243 242 240 239 239 241 244 244 245 245 232 212 211 216 221 227 230 224
230 228 229 231 232 234 234 232 232 233 232 231 231 229 230 232 234 234 235 236 236 237 238 240 241 241 242 242 241 242 244 247 246 240 229 223 221 224 229 233 231 225
237 236 236 237 236 237 236 234 236 238 236 234 232 231 230 231 233 234 233 233 233 234 236 238 239 238 238 240 242 242 245 247 243 231 225 223 222 227 234 236 230 223
243 244 245 245 243 243 242 240 239 240 239 237 235 235 235 235 236 235 234 233 232 233 236 238 239 238 235 237 240 242 245 243 233 223 222 218 217 227 236 237 230 221
242 243 244 245 245 246 247 246 244 243 243 242 239 238 237 236 237 238 238 237 236 234 235 238 240 239 235 235 237 239 241 235 220 213 215 214 215 222 227 231 232 226
239 239 241 243 244 245 247 250 251 250 249 248 246 244 239 235 237 239 241 242 241 240 239 240 242 240 237 236 236 237 237 231 219 212 211 212 215 216 215 221 226 224
241 244 248 250 249 248 248 251 256 257 256 255 252 249 246 243 241 241 241 242 242 243 244 244 244 243 240 238 237 237 237 230 222 217 212 208 211 213 215 219 218 215
265 266 270 272 270 268 264 260 262 264 264 263 258 255 254 253 248 246 246 246 244 244 242 241 241 242 241 240 239 240 238 230 221 215 210 208 209 210 213 217 215 214